COSMOS 249 DEB, 3911

Orbit data source: Space-Track

COSMOS 249 DEB, 3911 is space debris in LEO originally from a launch on Sun, 20 Oct 1968 UTC launched from the Tyuratam Missile And Space Complex (TTMTR). Debris objects in space refer to the collection of defunct objects orbiting the Earth. Examples of debris include non-operational satellites, rocket bodies, and fragments generated from explosions, collisions, or faulty payload assembly.

Loading next visibility...
Identifier
3911, 1968-091BP
Orbit
LEO
Country
Flag of CISCIS
Related business
Manufacturer
Unknown
Mission
Spacecraft
Bus & Motor
Unknown
Mass
Unknown
Launch date (UTC)
1968-10-20 (58 years ago)
Launch vehicle
Unknown
Launch site
Tyuratam Missile And Space Complex (TTMTR)
Object type
Payload
Rocket body
Debris
Shape & HBR
Unknown shape, 0.1 m
Radar Cross Section
Medium (>0.1 m² and <1 m²)

Expand to show TLE details & history
Last TLE update: 12 hours ago

TLE from 12 hours ago
0 COSMOS 249 DEB
1 03911U 68091BP  26219.87259119  .00001174  00000-0  31979-3 0  9995
2 03911  62.9207 321.6099 0791152  87.3714 281.7528 13.43248617674264
Epoch: 2026-08-07T20:56Z
TLE epoch observation values (Epoch: 2026-08-07T20:56:31.878Z)
Latitude
-0.00004°
Longitude
51.085°
Altitude
1,024.231 km
Speed
7.377 km/s
True Right ascension
21h 26m 26s
True Declination
0° 00' 00"
Sunlit
Object was in full shadow at epoch
Visualization orbit readout
Latitude
Unknown
Longitude
Unknown
Altitude
Unknown
Speed
Unknown
Apparent Right ascension
Unknown
Apparent Declination
Unknown
Sunlit
N/A
Visualization observer readout
Local Sidereal Time
23:23:09
Azimuth
Unknown
Elevation
Unknown
Doppler factor
Unknown
Orbital elements
Apogee altitude
1,687.406 km
Perigee altitude
504.758 km
Semi-major axis
7,474.219 km
Eccentricity
0.07912
Inclination
62.9207°
RAAN
321.6099°
Arg. of periapsis
87.3714°
True anomaly
272.73211°
Mean anomaly
281.7528°
Eccentric anomaly
277.25614°
Mean motion
3.35888 °/min
Orbital period
107.18 mins
BSTAR
0.00031979
Loading maneuver chart data...
Computing Atmospheric mass density...
Loading historical data...
Loading historical data...
Loading historical data...
Loading historical data...
Loading historical data...
Loading historical data...
Loading historical data...

Documentation

Showing up to 5 results
|